COSMOS 252 DEB *, 5871

Orbit data source: Space-Track

COSMOS 252 DEB *, 5871 is space debris in LEO originally from a launch on Fri, 01 Nov 1968 UTC launched from the Tyuratam Missile And Space Complex (TTMTR). Debris objects in space refer to the collection of defunct objects orbiting the Earth. Examples of debris include non-operational satellites, rocket bodies, and fragments generated from explosions, collisions, or faulty payload assembly.

Loading next visibility...
Identifier
5871, 1968-097DK
Orbit
LEO
Country
Flag of CISCIS
Related business
Manufacturer
Unknown
Mission
Spacecraft
Bus & Motor
Unknown
Mass
Unknown
Launch date (UTC)
1968-11-01 (57 years ago)
Launch vehicle
Unknown
Launch site
Tyuratam Missile And Space Complex (TTMTR)
Object type
Payload
Rocket body
Debris
Shape & HBR
Unknown shape, 0.2 m
Radar Cross Section
Small (<0.1 m²)

Expand to show TLE details & history
Last TLE update: 23 hours ago

TLE from 23 hours ago
0 COSMOS 252 DEB *
1 05871U 68097DK  26034.36143133 -.00000395  00000-0 -11439-3 0  9990
2 05871  62.8221 324.5646 0891879 205.7129 149.6861 13.06370841696090
Epoch: 2026-02-03T08:40Z
TLE epoch observation values (Epoch: 2026-02-03T08:40:27.666Z)
Latitude
-0.00009°
Longitude
60.90581°
Altitude
1,839.079 km
Speed
6.687 km/s
True Right ascension
21h 38m 15s
True Declination
0° 00' 00"
Sunlit
Object was in daylight at epoch
Visualization orbit readout
Latitude
Unknown
Longitude
Unknown
Altitude
Unknown
Speed
Unknown
Apparent Right ascension
Unknown
Apparent Declination
Unknown
Sunlit
N/A
Visualization observer readout
Local Sidereal Time
09:22:09
Azimuth
Unknown
Elevation
Unknown
Doppler factor
Unknown
Orbital elements
Apogee altitude
1,915.242 km
Perigee altitude
557.039 km
Semi-major axis
7,614.277 km
Eccentricity
0.08919
Inclination
62.8221°
RAAN
324.5646°
Arg. of periapsis
205.7129°
True anomaly
154.38515°
Mean anomaly
149.6861°
Eccentric anomaly
152.07892°
Mean motion
3.26663 °/min
Orbital period
110.21 mins
BSTAR
-0.00011439

Documentation

Showing up to 5 results
|